This is the latest recevied weather packets stored in our database for station/object HP2BWJ-13. If no packets are shown the sender has not sent any weather packets the latest 10 day(s).
| Time | Temp. | Humidity | Pressure | Rain* | Wind** | Luminosity | Snow |
|---|---|---|---|---|---|---|---|
| 1777596078 | 25.56° C | 86% | 1008 hPa | 0.51 mm | - | - | - |
| 1777594937 | 23.89° C | 76% | 1007 hPa | 0 mm | - | - | - |
| 1777594877 | 23.89° C | 76% | 1007 hPa | 0 mm | - | - | - |
| 1777593735 | 24.44° C | 76% | 1007 hPa | 0 mm | - | - | - |
| 1777593675 | 24.44° C | 76% | 1007 hPa | 0 mm | - | - | - |
| 1777592534 | 25° C | 76% | 1007 hPa | 0 mm | - | - | - |
| 1777592474 | 25° C | 76% | 1007 hPa | 0 mm | - | - | - |
| 1777591333 | 25.56° C | 76% | 1006 hPa | 0.76 mm | - | - | - |
| 1777591273 | 25.56° C | 76% | 1006 hPa | 0.76 mm | - | - | - |
| 1777590133 | 26.11° C | 76% | 1006 hPa | 1.02 mm | - | - | - |
| 1777590072 | 26.11° C | 76% | 1006 hPa | 1.02 mm | - | - | - |
| 1777588932 | 26.67° C | 76% | 1006 hPa | 0.76 mm | - | - | - |
| 1777588871 | 26.67° C | 76% | 1006 hPa | 0.76 mm | - | - | - |
| 1777587731 | 27.22° C | 76% | 1005 hPa | 0.76 mm | - | - | - |
| 1777587671 | 27.22° C | 76% | 1005 hPa | 0.76 mm | - | - | - |
| 1777586530 | 27.78° C | 76% | 1006 hPa | 1.52 mm | - | - | - |
| 1777586469 | 27.78° C | 76% | 1006 hPa | 1.52 mm | - | - | - |
| 1777585329 | 28.33° C | 76% | 1006 hPa | 0.51 mm | - | - | - |
| 1777585268 | 28.33° C | 76% | 1006 hPa | 0.51 mm | - | - | - |
| 1777584128 | 28.89° C | 76% | 1005 hPa | 0 mm | - | - | - |
| 1777584067 | 28.89° C | 76% | 1005 hPa | 0 mm | - | - | - |
| 1777582927 | 29.44° C | 76% | 1005 hPa | 0 mm | - | - | - |
| 1777582867 | 29.44° C | 76% | 1005 hPa | 0 mm | - | - | - |
| 1777581726 | 30° C | 76% | 1005 hPa | 0 mm | - | - | - |
| 1777581666 | 30° C | 76% | 1005 hPa | 0 mm | - | - | - |
* Rain latest hour (hover to see other rain measurements)
** Current wind speed in m/s (hover to see current wind gust speed)